Home > Weather > Wilhelmshaven > Past weeks

Flag for Germany Past Weather in Wilhelmshaven, Lower Saxony, Germany — Yesterday and Last 2 Weeks

Now
64 °F

Passing clouds.


Feels Like: 64 °F
Forecast: 63 / 81 °F
Wind: 3 mph from East

Location: Wittmundhaven

Current Time: Aug 25, 2016 at 6:51:42 AM

Latest Report: Aug 25, 2016 at 6:20 AM


Visibility: N/A

Pressure: 30.07 "Hg

Humidity: 83%

Dew Point: 59 °F

Location of WilhelmshavenLocation

Past Weather in Wilhelmshaven — Graph

°F

Wilhelmshaven Temperature Yesterday

Maximum temperature yesterday: 86 °F (at 4:20 PM)
Minimum temperature yesterday: 61 °F (at 2:20 AM)
Average temperature yesterday: 72 °F

High & Low Weather Summary for the Past Weeks

 TemperatureHumidityPressure
High86 °F (Aug 24, 4:20 PM)100% (Aug 10, 6:20 AM)30.30 "Hg (Aug 10, 6:20 AM)
Low46 °F (Aug 18, 5:20 AM)43% (Aug 24, 4:20 PM)29.77 "Hg (Aug 19, 10:20 PM)
Average61 °F85%30.07 "Hg
* Reported Aug 10 5:20 AM — Aug 25 5:20 AM, Wilhelmshaven, Weather by CustomWeather, © 2016

Note: Actual official high and low records may vary slightly from our data, if they occured in-between our weather recording intervals... More about our weather records

Advertising

Wilhelmshaven Weather History for the Previous 24 Hours

Scroll right to see more
 ConditionsComfort  
Time TempWeatherWind HumidityBarometerVisibility
5:20 AM
Thu, Aug 25
66 °FPassing clouds.2 mph78%30.07 "HgN/A
4:20 AM66 °FPassing clouds.5 mph83%30.09 "HgN/A
3:20 AM66 °FPassing clouds.5 mph83%30.09 "HgN/A
2:20 AM68 °FPassing clouds.6 mph78%30.09 "HgN/A
1:20 AM70 °FPassing clouds.6 mph73%30.09 "HgN/A
12:20 AM70 °FPassing clouds.5 mph78%30.09 "HgN/A
11:20 PM
Wed, Aug 24
70 °FPassing clouds.2 mph78%30.12 "HgN/A
10:20 PM72 °FPassing clouds.5 mph78%30.12 "HgN/A
9:20 PM73 °FScattered clouds.5 mph74%30.12 "HgN/A
8:20 PM79 °FPassing clouds.3 mph65%30.12 "HgN/A
7:20 PM82 °FPassing clouds.5 mph55%30.12 "HgN/A
6:20 PM84 °FPassing clouds.8 mph48%30.12 "HgN/A
5:20 PM86 °FPassing clouds.10 mph43%30.15 "HgN/A
4:20 PM86 °FPassing clouds.9 mph43%30.15 "HgN/A
3:20 PM84 °FPassing clouds.10 mph48%30.15 "HgN/A
2:20 PM84 °FPassing clouds.12 mph48%30.18 "HgN/A
1:20 PM82 °FPassing clouds.8 mph51%30.18 "HgN/A
12:20 PM79 °FPassing clouds.8 mph58%30.18 "HgN/A
11:20 AM75 °FPassing clouds.8 mph69%30.21 "HgN/A
10:20 AM73 °FPassing clouds.9 mph74%30.21 "HgN/A
9:20 AM70 °FPassing clouds.7 mph83%30.21 "HgN/A
8:20 AM66 °FMild.6 mph88%30.24 "HgN/A
7:47 AM64 °FFog.7 mph94%30.24 "Hg5 mi
7:20 AM63 °FFog.7 mph94%30.24 "Hg4 mi
6:20 AM61 °FFog.6 mph94%30.24 "Hg2 mi
Weather by CustomWeather, © 2016

See weather overviewHow to use our weather pages